This demonstration page uses our WeatherBlox Daily Observations layout. Learn more.

Hourly Observations for March 5, 2020

Temp ( °F °C ) Dew Point ( °F °C ) Humidity (%) Winds ( mph kmh ) Pressure ( in mb ) Visibility ( mi km ) Precip ( " mm )
12:15 am 00:15 Clear 47 8.2 23 -5.2 39 39 NW 10 17 29.98 1015 10 16.0934 0 0
12:55 am 00:55 Clear 47 8.1 31 -0.5 55 55 N 10 17 30.02 1017 10 16.0934 0 0
1:15 am 01:15 Clear 44 6.6 31 -0.3 62 62 N 9 15 30.05 1018 10 16.0934 0 0
1:35 am 01:35 Clear 44 6.7 32 0 63 63 N 10 17 30.08 1019 10 16.0934 0 0
1:55 am 01:55 Clear 43 6.1 32 0.1 66 66 N 16 26 30.11 1020 10 16.0934 0 0
2:15 am 02:15 Clear 43 6.2 33 0.5 67 67 NNW 17 28 30.12 1020 10 16.0934 0 0
2:35 am 02:35 Clear 42 5.5 32 0.2 69 69 N 16 26 30.13 1020 10 16.0934 0 0
2:55 am 02:55 Clear 41 5 32 0 70 70 N 21 33 30.15 1021 10 16.0934 0 0
3:15 am 03:15 Clear 40 4.6 32 -0.2 71 71 NNW 16 26 30.16 1021 10 16.0934 0 0
3:35 am 03:35 Clear 39 4.1 31 -0.5 72 72 NNW 12 19 30.17 1022 10 16.0934 0 0
3:55 am 03:55 Clear 38 3.6 31 -0.8 73 73 NNW 9 15 30.19 1022 10 16.0934 0 0
4:15 am 04:15 Clear 38 3.3 30 -1 74 74 NNW 13 20 30.2 1023 10 16.0934 0 0
4:35 am 04:35 Clear 38 3.2 30 -1.3 73 73 NNW 12 19 30.23 1024 10 16.0934 0 0
4:55 am 04:55 Clear 38 3.1 29 -1.6 72 72 NW 12 19 30.25 1024 10 16.0934 0 0
5:15 am 05:15 Clear 36 2.1 28 -2.1 74 74 NW 9 15 30.27 1025 10 16.0934 0 0
5:35 am 05:35 Clear 36 2 28 -2.1 75 75 NW 12 19 30.28 1025 10 16.0934 0 0
5:55 am 05:55 Clear 34 1 28 -2.5 78 78 WNW 10 17 30.3 1026 10 16.0934 0 0
6:15 am 06:15 Clear 33 0.8 28 -2.5 79 79 NW 9 15 30.31 1026 10 16.0934 0 0
6:35 am 06:35 Clear 34 1 28 -2.5 78 78 NW 12 19 30.32 1027 10 16.0934 0 0
6:55 am 06:55 Clear 34 1 27 -2.6 77 77 NW 13 20 30.33 1027 10 16.0934 0 0
7:15 am 07:15 Sunny 33 0.7 27 -2.9 77 77 NW 10 17 30.35 1028 10 16.0934 0 0
7:35 am 07:35 Sunny 34 1 27 -2.6 77 77 NW 10 17 30.36 1028 10 16.0934 0 0
7:55 am 07:55 Sunny 36 2 28 -2.2 74 74 NW 12 19 30.36 1028 10 16.0934 0 0
8:15 am 08:15 Sunny 38 3.2 29 -1.7 71 71 NW 15 24 30.36 1028 10 16.0934 0 0
8:35 am 08:35 Sunny 40 4.4 28 -2.1 63 63 NW 15 24 30.35 1028 10 16.0934 0 0
8:55 am 08:55 Sunny 42 5.3 27 -2.7 57 57 NW 17 28 30.36 1028 10 16.0934 0 0
9:15 am 09:15 Sunny 43 6 25 -3.9 49 49 NW 21 33 30.37 1028 10 16.0934 0 0
9:35 am 09:35 Sunny 43 6.2 25 -4.1 48 48 NW 18 30 30.37 1028 10 16.0934 0 0
9:55 am 09:55 Sunny 44 6.9 24 -4.3 45 45 NW 18 30 30.37 1028 10 16.0934 0 0
10:15 am 10:15 Sunny 46 8 22 -5.8 37 37 NNW 21 33 30.36 1028 10 16.0934 0 0
10:35 am 10:35 Sunny 48 8.8 16 -8.7 28 28 NNW 25 41 30.35 1028 10 16.0934 0 0
10:55 am 10:55 Sunny 48 9.1 17 -8.6 28 28 NW 21 33 30.36 1028 10 16.0934 0 0
11:15 am 11:15 Sunny 50 9.8 17 -8.2 28 28 NNW 22 35 30.36 1028 10 16.0934 0 0
11:35 am 11:35 Sunny 50 10 17 -8.4 27 27 NNW 21 33 30.36 1028 10 16.0934 0 0
11:55 am 11:55 Sunny 50 10 16 -9 25 25 NW 20 31 30.36 1028 10 16.0934 0 0
12:15 pm 12:15 Sunny 51 10.5 14 -10.2 22 22 NW 25 41 30.36 1028 10 16.0934 0 0
12:35 pm 12:35 Sunny 52 10.9 13 -10.8 21 21 NNW 23 37 30.35 1028 10 16.0934 0 0
12:55 pm 12:55 Sunny 52 11.1 11 -11.6 19 19 NNW 24 39 30.35 1028 10 16.0934 0 0
1:15 pm 13:15 Sunny 53 11.4 11 -11.6 19 19 NNW 22 35 30.35 1028 10 16.0934 0 0
1:35 pm 13:35 Sunny 53 11.5 12 -11.3 19 19 NNW 25 41 30.34 1027 10 16.0934 0 0
1:55 pm 13:55 Sunny 53 11.5 12 -11.2 19 19 NNW 25 41 30.34 1027 10 16.0934 0 0
2:15 pm 14:15 Sunny 53 11.4 13 -10.4 21 21 NW 23 37 30.34 1027 10 16.0934 0 0
2:35 pm 14:35 Sunny 53 11.6 12 -10.9 20 20 NW 25 41 30.34 1027 10 16.0934 0 0
2:55 pm 14:55 Sunny 53 11.6 11 -11.7 18 18 NW 21 33 30.34 1027 10 16.0934 0 0
3:15 pm 15:15 Sunny 53 11.5 11 -11.5 19 19 NW 24 39 30.34 1027 10 16.0934 0 0
3:35 pm 15:35 Sunny 53 11.5 11 -11.9 18 18 NNW 21 33 30.35 1028 10 16.0934 0 0
3:55 pm 15:55 Sunny 53 11.5 10 -12.2 18 18 NNW 18 30 30.35 1028 10 16.0934 0 0
4:15 pm 16:15 Sunny 53 11.5 10 -12.3 18 18 NNW 20 31 30.36 1028 10 16.0934 0 0
4:35 pm 16:35 Sunny 52 11.2 10 -12.5 18 18 NNW 16 26 30.36 1028 10 16.0934 0 0
4:55 pm 16:55 Sunny 51 10.8 10 -12.5 18 18 NNW 15 24 30.37 1028 10 16.0934 0 0
5:15 pm 17:15 Sunny 51 10.6 10 -12.2 19 19 NNW 14 22 30.37 1028 10 16.0934 0 0
5:35 pm 17:35 Sunny 50 10.2 11 -11.6 20 20 NNW 12 19 30.38 1029 10 16.0934 0 0
5:55 pm 17:55 Sunny 49 9.5 12 -11.2 22 22 N 12 19 30.4 1029 10 16.0934 0 0
6:15 pm 18:15 Sunny 47 8.4 13 -10.8 25 25 NNW 8 13 30.41 1030 10 16.0934 0 0
6:35 pm 18:35 Clear 45 7 12 -11 27 27 N 7 11 30.43 1030 10 16.0934 0 0
6:55 pm 18:55 Clear 43 5.9 12 -11.1 29 29 NNW 6 9 30.44 1031 10 16.0934 0 0
7:15 pm 19:15 Clear 40 4.6 12 -11.1 31 31 NNW 7 11 30.46 1032 10 16.0934 0 0
7:35 pm 19:35 Clear 39 3.9 12 -11.3 32 32 NNW 7 11 30.48 1032 10 16.0934 0 0
7:55 pm 19:55 Clear 37 2.5 11 -11.4 35 35 N 3 6 30.49 1033 10 16.0934 0 0
8:15 pm 20:15 Clear 33 0.5 13 -10.8 43 43 Calm 30.51 1033 10 16.0934 0 0
8:35 pm 20:35 Clear 32 0 12 -11 44 44 NNW 6 9 30.52 1033 10 16.0934 0 0
8:55 pm 20:55 Clear 31 -0.8 13 -10.5 48 48 NNW 5 7 30.52 1034 10 16.0934 0 0
9:15 pm 21:15 Clear 31 -0.5 13 -10.5 47 47 NNW 3 6 30.54 1034 10 16.0934 0 0
9:35 pm 21:35 Clear 29 -1.6 13 -10.5 51 51 NW 5 7 30.55 1035 10 16.0934 0 0
9:55 pm 21:55 Clear 29 -1.8 13 -10.3 53 53 NW 3 6 30.56 1035 10 16.0934 0 0
10:15 pm 22:15 Clear 29 -1.5 13 -10.5 51 51 Calm 30.56 1035 10 16.0934 0 0
10:35 pm 22:35 Clear 30 -1.2 14 -10.2 51 51 W 5 7 30.58 1035 10 16.0934 0 0
10:55 pm 22:55 Clear 27 -2.8 14 -10.1 58 58 NW 5 7 30.59 1036 10 16.0934 0 0
11:15 pm 23:15 Clear 28 -2.4 14 -10 56 56 WNW 3 6 30.59 1036 10 16.0934 0 0
11:35 pm 23:35 Clear 28 -2.5 14 -10 57 57 Calm 30.59 1036 10 16.0934 0 0
11:55 pm 23:55 Clear 28 -2.2 14 -10 56 56 Calm 30.59 1036 10 16.0934 0 0

Powered by AerisWeather